This is the latest recevied weather packets stored in our database for station/object KB3UQE. If no packets are shown the sender has not sent any weather packets the latest 10 day(s).
| Time | Temp. | Humidity | Pressure | Rain* | Wind** | Luminosity | Snow |
|---|---|---|---|---|---|---|---|
| 1777496352 | 17.78° C | 48% | 1007.5 hPa | - | - | - | - |
| 1777495196 | 18.89° C | 47% | 1007.7 hPa | - | - | - | - |
| 1777494912 | 18.89° C | 47% | 1007.7 hPa | - | - | - | - |
| 1777493755 | 20° C | 47% | 1008.3 hPa | - | - | - | - |
| 1777493472 | 20° C | 47% | 1008.3 hPa | - | - | - | - |
| 1777492435 | 20° C | 46% | 1008.4 hPa | - | - | - | - |
| 1777492031 | 20° C | 46% | 1008.4 hPa | - | - | - | - |
| 1777490995 | 20° C | 46% | 1008.7 hPa | - | - | - | - |
| 1777490592 | 20° C | 46% | 1008.7 hPa | - | - | - | - |
| 1777489734 | 20° C | 46% | 1009.6 hPa | - | - | - | - |
| 1777489331 | 20° C | 46% | 1009.6 hPa | - | - | - | - |
| 1777488295 | 22.78° C | 44% | 1010.2 hPa | - | - | - | - |
| 1777487891 | 22.78° C | 44% | 1010.2 hPa | - | - | - | - |
| 1777486494 | 21.67° C | 44% | 1010.8 hPa | - | - | - | - |
| 1777486090 | 21.67° C | 44% | 1010.8 hPa | - | - | - | - |
| 1777484694 | 21.11° C | 45% | 1011 hPa | - | - | - | - |
| 1777484290 | 21.11° C | 45% | 1011 hPa | - | - | - | - |
| 1777482894 | 20° C | 46% | 1011.6 hPa | - | - | - | - |
| 1777482490 | 20° C | 46% | 1011.6 hPa | - | - | - | - |
| 1777481093 | 20.56° C | 45% | 1012.1 hPa | - | - | - | - |
| 1777480689 | 20.56° C | 45% | 1012.1 hPa | - | - | - | - |
| 1777479653 | 18.33° C | 47% | 1012.4 hPa | - | - | - | - |
| 1777479249 | 18.33° C | 47% | 1012.4 hPa | - | - | - | - |
| 1777478393 | 17.22° C | 48% | 1013 hPa | - | - | - | - |
| 1777477809 | 17.22° C | 48% | 1013 hPa | - | - | - | - |
* Rain since midnight (hover to see other rain measurements)
** Current wind speed in m/s (hover to see current wind gust speed)